Regional Weather Roundup
Issued by NWS

Home | Current Version | Previous Version | Text Only | Print | Product List | Glossary Off
Versions: 1 2 3 4 5 6 7 8 9 10 11 12 13 14 15 16 17 18 19 20 21 22 23 24 25 26 27 28 29 30 31 32 33 34 35 36 37 38 39 40 41 42 43 44 45 46 47 48 49 50

000
ASUS43 KMKX 231400
RWRWI

WISCONSIN REGIONAL WEATHER ROUNDUP
NATIONAL WEATHER SERVICE MILWAUKEE/SULLIVAN WI
900 AM CDT FRI JUN 23 2017

NOTE: "FAIR" INDICATES FEW OR NO CLOUDS BELOW 12,000 FEET WITH NO
SIGNIFICANT WEATHER AND/OR OBSTRUCTIONS TO VISIBILITY.

WIZ001-002-006>008-014>016-023>028-231500-
NORTHWEST WISCONSIN

CITY           SKY/WX    TMP DP  RH WIND       PRES   REMARKS
SUPERIOR ARPT  NOT AVBL
ASHLAND        SUNNY     65  51  60 W10       29.67R
HAYWARD        SUNNY     62  48  60 W6        29.72R
SIREN          SUNNY     62  48  61 NW13G18   29.74R
CUMBERLAND     SUNNY     61  46  59 NW12      29.74R
RICE LAKE      SUNNY     63  49  61 W10       29.74R
CHETEK         SUNNY     63  53  71 NW7       29.73R
LADYSMITH      SUNNY     63  53  70 W7        29.73R
EAU CLAIRE     NOT AVBL
MENOMONIE      SUNNY     64  53  67 W9        29.74S
NEW RICHMOND   SUNNY     63  49  61 NW12      29.76R
OSCEOLA        SUNNY     63  49  62 NW12G22   29.78R
$$

WIZ003>005-009-010-017-018-231500-
NORTH CENTRAL WISCONSIN

CITY           SKY/WX    TMP DP  RH WIND       PRES   REMARKS
MANITOWISH WTR SUNNY     62  51  66 W7        29.67S
ARBOR VITAE    SUNNY     62  53  73 W9        29.67S
WOODRUFF       SUNNY     62  53  73 W9        29.67S
RHINELANDER    SUNNY     64  56  75 W12       29.69R
EAGLE RIVER    SUNNY     62  53  71 W9        29.67S
LAND O LAKES   SUNNY     64  51  63 W7        29.68R
PHILLIPS       SUNNY     62  53  71 W5        29.69R
TOMAHAWK       NOT AVBL
MEDFORD        SUNNY     62  54  75 W10       29.71S
MERRILL        SUNNY     65  58  76 NW10      29.69F
$$

WIZ029-030-035-036-043>047-231500-
CENTRAL WISCONSIN

CITY           SKY/WX    TMP DP  RH WIND       PRES   REMARKS
WAUSAU         CLOUDY    68  58  70 W8        29.68S
MOSINEE        MOSUNNY   66  63  88 W6        29.71S
MARSHFIELD     SUNNY     66  59  78 W10       29.71R
STEVENS POINT  CLOUDY    64  59  85 SW5       29.70S
WAUPACA        SUNNY     69  63  81 W5        29.69F
WAUTOMA        CLOUDY    68  63  84 W6        29.71S
WISC RAPIDS    CLOUDY    67  61  81 W8        29.72S
CAMP DOUGLAS   NOT AVBL
$$

WIZ011>013-019>022-031-037>040-048>050-231500-
NORTHEAST WISCONSIN

CITY           SKY/WX    TMP DP  RH WIND       PRES   REMARKS
ANTIGO         CLOUDY    63  58  84 W7        29.69S
SHAWANO        SUNNY     69  61  77 W6        29.67S
OCONTO         SUNNY     68  60  75 W7        29.64S
STURGEON BAY     N/A     67  60  78 NW9         N/A
GREEN BAY      MOSUNNY   70  63  78 W9        29.67R
MANITOWOC      NOT AVBL
APPLETON       MOSUNNY   66  59  77 W8        29.67R
CLINTONVILLE   SUNNY     68  61  77 W6        29.68S
OSHKOSH        MOSUNNY   68  61  78 NW6       29.68S
$$

WIZ032>034-041-042-053>061-231500-
SOUTHWEST WISCONSIN

CITY           SKY/WX    TMP DP  RH WIND       PRES   REMARKS
LA CROSSE      SUNNY     70  60  70 SW6       29.74R
SPARTA         MOSUNNY   62  62 100 W7        29.74R
VIROQUA        SUNNY     64  64 100 W6        29.77R
BOSCOBEL       PTSUNNY   66  65  96 SW7       29.77R
PRAIRIE DU CHI MOSUNNY   68  63  82 W3        29.77R
PLATTEVILLE    CLOUDY    68  67  94 W6        29.78R
$$

WIZ056-057-062-063-064-067-068-231500-
SOUTH CENTRAL WISCONSIN

CITY           SKY/WX    TMP DP  RH WIND       PRES   REMARKS
REEDSBURG      PTSUNNY   65  63  93 W8        29.74R
BARABOO/DELLS  PTSUNNY   66  63  88 W6        29.73S
LONE ROCK      CLOUDY    67  64  90 W7        29.74S
MINERAL POINT  PTSUNNY   68  66  94 W7        29.77R
MADISON        PTSUNNY   70  62  76 N5        29.73R
MIDDLETON      MOSUNNY   69  64  86 W5        29.74R
WATERTOWN      CLOUDY    67  67  99 W6        29.71R
MONROE         CLOUDY    68  61  77 NW7       29.75R
JANESVILLE     PTSUNNY   70  63  78 NW6       29.73R
$$

WIZ051-052-058>065-066-070>072-231500-
SOUTHEAST WISCONSIN

CITY           SKY/WX    TMP DP  RH WIND       PRES   REMARKS
MILWAUKEE      CLOUDY    69  62  78 NW9       29.69R
WAUKESHA       SUNNY     64  61  88 NW10      29.71F
MILWAUKEE/TIMM SUNNY     66  59  77 NW7       29.70R
RACINE         CLOUDY    68  62  81 W6        29.71R
KENOSHA        PTSUNNY   68  62  81 NW6       29.71R
FOND DU LAC    MOSUNNY   70  61  73 NW8       29.70R
SHEBOYGAN      MOSUNNY   70  64  81 NW12      29.67R
WEST BEND      CLOUDY    66  63  88 W8        29.69R
JUNEAU         PTSUNNY   67  62  85 W3        29.72R
$$

LSZ147-162-231500-
LAKE SUPERIOR

STATION/POSITION TIME  TEMP    WIND        PRES    WAVE
                       AIR SEA DIR/SP/G            HT/PER
                 (UTC) (F)     (DEG/KT/KT) (MB)    (FT/S)
W MID LAKE BUOY  1250   47 39  250/ 14/ 16 1002.1F   1/ 3
DEVILS ISLAND    1300   55     240/ 15/ 17 1003.4R
SAXON HARBOR     1340   63     280/  6/ 10 1004.1R
$$

LMZ867-665-643>646-231500-
LAKE MICHIGAN

STATION/POSITION TIME  TEMP    WIND        PRES    WAVE
                       AIR SEA DIR/SP/G            HT/PER
                 (UTC) (F)     (DEG/KT/KT) (MB)    (FT/S)
CHAMBERS ISLAND  1340   67     210/  2/  7 1003.4R
S GREEN BAY BUOY 1330   65     260/  8/ 10 1004.1R
N MID LAKE BUOY  1250   59 56  280/ 12/ 14 1003.1F   1/ 4
NORTHPORT PIER   1340   66     280/  6/ 10 1003.4R
KEWAUNEE LAKESHO 1330   67     290/  6/ 12 1003.8R
SHEBOYGAN LAKESH 1300   66     290/ 10/ 14 1003.8R
PORT WASHINGTON  1340   69     300/  7/ 11 1006.1R
ATWATER BUOY     1239   61 59  290/  8/  8 1005.0S
MILWAUKEE LAKESH 1330   66     300/  7/  9   N/A
S MID LAKE BUOY  1250   62 61  350/  8/ 10 1004.2F   1/ 4
KENOSHA   LAKESH 1300   66     290/  2/  5 1005.4
$$

TC  - TEMPERATURE IN CELSIUS
VSB - VISIBILITY IN STATUTE MILES
WCI - WIND CHILL INDEX
HX  - HEAT INDEX





USA.gov is the U.S. government's official web portal to all federal, state and local government web resources and services.